sat.trackr.live / text

‹ back to catalog

ONEWEB-0514

NORAD 54132 · 2022-138V

PAYLOAD ACTIVE UNKNOWN

§ Identity

Operator
Country
UK
Launch date
2022-10-22
Launch site
SRILR
Launch vehicle
Mass (kg)
RCS (m²)

Purposes: comms

External: N2YO · Heavens-Above · Gunter

§ Orbital elements

Epoch: 2026-09-20T00:27:46.245600Z

Period
109.11 min
Inclination
87.9106°
Eccentricity
0.0001925
Mean motion
13.19726821 rev/d
Perigee alt
1,184.3 km
Apogee alt
1,187.2 km
Semi-major
7,563.9 km
B*
2.4445e-4
RAAN
286.0754°
Arg perigee
96.3838°
Mean anomaly
263.7514°
Rev number
18,933

§ Raw data

ONEWEB-05141 54132U 22138V   26263.01928525  .00000111  00000+0  24445-3 0  99962 54132  87.9106 286.0754 0001925  96.3838 263.7514 13.19726821189336

JSON: /api/v1/satellites/54132 · /tle

For live sub-satellite position, see the globe view (requires WebGL).

§ Visibility from observer

Set your observer location to see the next 7 days of passes ≥ 10°. The values pass through the URL so the page stays shareable.

No JS? Fill the form by hand. The geolocation button needs JavaScript.